Orbital Elements
Epoch 2022 Aug. 9.0 TT = JDT 2459800.5
T 2023 Mar. 2.84849 TT Rudenko
q 2.3860068 (2000.0) P Q
n 0.23324485 Peri. 342.88563 -0.21705015 -0.95528139
a 2.6137338 Node 119.24593 +0.92039250 -0.26881042
e 0.0871271 Incl. 13.30605 +0.32521819 +0.12320075
P 4.23
From 75 observations 2018 Dec. 9-2019 Mar. 2, mean residual 0".5.
|